Snowfall_Accumulation
0.1 0.0 0.0 0.0 0.0 0.0 0.0 0.0 0.0 0.0 0.0 0.0 0.0 0.0 0.0 0.0 0.0 0.0 0.0 0.0 0.0 0.0 0.0 0.0 0.0 0.0 0.0
0.0 0.6 0.6 0.4 0.7 0.1 0.0 0.0 0.0 0.0 0.0 0.0 0.0 0.0 0.0 0.0 0.0 0.0 0.0 0.0 0.0 0.0 0.0 0.0 0.0 0.0 0.0
0.5 1.1 2.0 1.6 3.3 2.9 2.1 0.0 0.0 0.0 0.0 0.0 0.0 0.0 0.0 0.0 0.1 0.0 0.1 0.1 0.0 0.0 0.0 0.0 0.0 0.0 0.0
0.3 1.5 1.4 0.8 0.6 0.7 0.5 0.3 0.0 0.0 0.0 0.0 0.0 0.0 0.0 0.0 0.0 0.0 0.0 0.0 0.0 0.0 0.0 0.0 0.0 0.0 0.0
1.1 0.4 0.4 0.3 0.3 0.2 0.1 0.0 0.0 0.0 0.0 0.0 0.0 0.0 0.0 0.0 0.0 0.0 0.0 0.0 0.1 0.1 0.3 0.4 0.0 0.0 0.0
0.4 0.0 0.0 0.0 0.0 0.0 0.2 0.3 0.4 0.0 0.0 0.0 0.0 0.0 0.0 0.0 0.0 0.0 0.0 0.0 0.1 0.0 0.2 0.5 0.4 0.2 0.0
0.0 0.0 0.0 0.0 0.4 0.3 0.5 0.6 0.1 0.0 0.0 0.0 0.0 0.0 0.0 0.0 0.0 0.0 0.0 0.0 0.0 0.2 0.3 0.3 0.3 0.3 0.1
0.0 0.0 0.2 0.1 0.4 0.3 0.3 0.2 0.1 0.0 0.0 0.1 0.0 0.0 0.0 0.0 0.0 0.0 0.0 0.0 0.0 0.2 0.2 0.3 0.3 0.3 0.2
0.1 0.1 0.0 0.0 0.0 0.0 0.1 0.3 0.2 0.0 0.0 0.0 0.0 0.0 0.0 0.0 0.0 0.0 0.0 0.0 0.0 0.0 0.1 0.1 0.1 0.1 0.0
0.0 0.0 0.0 0.0 0.0 0.0 0.1 1.1 0.8 0.6 0.0 0.8 0.0 0.2 1.2 0.0 0.0 0.0 0.0 0.0 0.0 0.0 0.1 0.1 0.1 0.2 0.4
0.0 0.0 0.0 0.0 0.0 0.0 0.0 0.9 2.4 1.7 0.0 2.7 3.0 0.1 2.1 0.2 0.0 0.0 0.0 0.0 0.0 0.0 0.0 0.0 0.3 0.5 1.5
0.0 0.0 0.0 0.0 0.0 0.0 0.0 0.0 0.1 1.0 0.2 0.4 5.6 1.5 3.4 2.0 0.0 0.0 0.0 0.0 0.0 0.0 0.1 0.1 0.1 0.2 0.3
0.0 0.0 0.0 0.0 0.0 0.0 0.0 0.0 0.0 0.0 0.0 0.0 0.8 1.6 3.7 3.7 1.8 0.1 0.0 0.0 0.0 0.1 0.4 0.8 1.0 0.7 1.0
0.3 0.1 0.0 0.0 0.1 0.0 0.1 0.0 0.3 0.0 0.0 0.0 0.0 0.9 3.5 1.4 2.2 1.5 0.0 0.6 0.3 0.4 1.1 0.7 0.5 1.0 1.7
0.1 0.3 0.0 0.0 0.0 0.0 0.3 0.4 1.8 2.8 3.6 1.5 0.0 0.0 0.2 0.7 2.8 0.0 0.0 0.0 0.0 1.2 1.7 1.6 0.5 2.2 2.1
1.6 1.5 1.9 1.7 1.2 2.9 2.8 3.1 3.9 2.3 4.0 4.2 4.3 5.8 5.9 5.3 0.0 3.4 2.6 0.7 1.5 0.4 1.5 4.5 3.1 0.7 0.5
4.2 3.8 4.5 3.5 4.5 3.7 3.1 3.6 3.6 2.5 4.2 4.6 6.2 8.7 10.0 5.3 2.1 1.7 5.1 5.6 2.8 2.0 2.2 3.8 4.3 2.2 1.6